Time,TemperatureF,DewpointF,PressureIn,WindDirection,WindDirectionDegrees,WindSpeedMPH,WindSpeedGustMPH,Humidity,HourlyPrecipIn,Conditions,Clouds,dailyrainin,SolarRadiationWatts/m^2,SoftwareType,DateUTC
2013-02-03 00:08:00,39.9,39.1,30.23,ESE,123,2.0,2.0,97,0.00,,,0.00,0,Wunderground v.1.15,2013-02-03 08:08:00,
2013-02-03 00:18:00,39.9,39.1,30.22,ESE,121,2.0,2.0,97,0.00,,,0.00,0,Wunderground v.1.15,2013-02-03 08:18:00,
2013-02-03 00:28:00,39.8,39.0,30.22,ESE,113,2.0,3.0,97,0.00,,,0.00,0,Wunderground v.1.15,2013-02-03 08:28:00,
2013-02-03 00:38:00,39.5,38.7,30.22,ESE,112,2.0,3.0,97,0.00,,,0.00,0,Wunderground v.1.15,2013-02-03 08:38:00,
2013-02-03 00:48:00,39.3,38.8,30.23,ESE,114,2.0,2.0,98,0.00,,,0.00,0,Wunderground v.1.15,2013-02-03 08:48:00,
2013-02-03 00:58:00,39.2,38.7,30.23,ESE,113,2.0,2.0,98,0.00,,,0.00,0,Wunderground v.1.15,2013-02-03 08:58:00,
2013-02-03 01:08:00,39.3,38.8,30.24,ESE,113,0.0,1.0,98,0.00,,,0.00,0,Wunderground v.1.15,2013-02-03 09:08:00,
2013-02-03 01:23:00,39.5,39.0,30.23,ESE,113,1.0,1.0,98,0.00,,,0.00,0,Wunderground v.1.15,2013-02-03 09:23:00,
2013-02-03 01:29:00,39.5,39.0,30.23,ESE,113,1.0,1.0,98,0.00,,,0.00,0,Wunderground v.1.15,2013-02-03 09:29:00,
2013-02-03 01:38:00,39.5,39.2,30.23,ESE,112,1.0,1.0,99,0.00,,,0.00,0,Wunderground v.1.15,2013-02-03 09:38:00,
2013-02-03 01:49:00,39.5,39.2,30.22,ESE,109,1.0,1.0,99,0.00,,,0.00,0,Wunderground v.1.15,2013-02-03 09:49:00,
2013-02-03 01:59:00,39.6,39.3,30.22,ESE,109,1.0,1.0,99,0.00,,,0.00,0,Wunderground v.1.15,2013-02-03 09:59:00,
2013-02-03 02:09:00,39.9,39.6,30.22,ESE,107,2.0,2.0,99,0.00,,,0.00,0,Wunderground v.1.15,2013-02-03 10:09:00,
2013-02-03 02:19:00,40.1,39.8,30.21,ESE,109,2.0,2.0,99,0.00,,,0.00,0,Wunderground v.1.15,2013-02-03 10:19:00,
2013-02-03 02:29:00,40.2,39.9,30.21,ESE,109,0.0,1.0,99,0.00,,,0.00,0,Wunderground v.1.15,2013-02-03 10:29:00,
2013-02-03 02:37:00,40.2,39.9,30.23,ESE,109,0.0,0.0,99,0.00,,,0.00,0,Wunderground v.1.15,2013-02-03 10:37:00,
2013-02-03 02:48:00,40.5,40.2,30.21,ESE,113,1.0,3.0,99,0.00,,,0.00,0,Wunderground v.1.15,2013-02-03 10:48:00,
2013-02-03 02:58:00,40.5,40.2,30.21,ESE,113,1.0,1.0,99,0.00,,,0.00,0,Wunderground v.1.15,2013-02-03 10:58:00,
2013-02-03 03:08:00,40.5,40.2,30.21,ESE,112,1.0,2.0,99,0.00,,,0.00,0,Wunderground v.1.15,2013-02-03 11:08:00,
2013-02-03 03:18:00,40.6,40.3,30.21,ESE,112,1.0,2.0,99,0.00,,,0.00,0,Wunderground v.1.15,2013-02-03 11:18:00,
2013-02-03 03:28:00,40.8,40.5,30.21,ESE,112,2.0,4.0,99,0.00,,,0.00,0,Wunderground v.1.15,2013-02-03 11:28:00,
2013-02-03 03:38:00,40.6,40.3,30.20,ESE,113,2.0,3.0,99,0.00,,,0.00,0,Wunderground v.1.15,2013-02-03 11:38:00,
2013-02-03 03:48:00,40.6,40.1,30.20,ESE,113,2.0,2.0,98,0.00,,,0.00,0,Wunderground v.1.15,2013-02-03 11:48:00,
2013-02-03 03:58:00,40.8,40.3,30.20,ESE,113,0.0,1.0,98,0.00,,,0.00,0,Wunderground v.1.15,2013-02-03 11:58:00,
2013-02-03 04:08:00,41.1,40.6,30.22,ESE,113,1.0,1.0,98,0.00,,,0.00,0,Wunderground v.1.15,2013-02-03 12:08:00,
2013-02-03 04:18:00,41.2,40.7,30.22,ESE,113,1.0,2.0,98,0.00,,,0.00,0,Wunderground v.1.15,2013-02-03 12:18:00,
2013-02-03 04:33:00,41.2,40.4,30.22,ESE,113,1.0,1.0,97,0.00,,,0.00,0,Wunderground v.1.15,2013-02-03 12:33:00,
2013-02-03 04:43:00,41.3,40.5,30.22,ESE,113,1.0,1.0,97,0.00,,,0.00,0,Wunderground v.1.15,2013-02-03 12:43:00,
2013-02-03 04:49:00,41.5,40.7,30.22,ESE,114,1.0,5.0,97,0.00,,,0.00,0,Wunderground v.1.15,2013-02-03 12:49:00,
2013-02-03 04:59:00,41.8,41.0,30.22,ESE,112,3.0,3.0,97,0.00,,,0.00,0,Wunderground v.1.15,2013-02-03 12:59:00,
2013-02-03 05:09:00,42.1,41.0,30.22,ESE,110,5.0,5.0,96,0.00,,,0.00,0,Wunderground v.1.15,2013-02-03 13:09:00,
2013-02-03 05:19:00,42.2,41.1,30.22,East,100,5.0,11.0,96,0.00,,,0.00,0,Wunderground v.1.15,2013-02-03 13:19:00,
2013-02-03 05:29:00,42.2,40.9,30.22,ESE,112,4.0,5.0,95,0.00,,,0.00,0,Wunderground v.1.15,2013-02-03 13:29:00,
2013-02-03 05:38:00,42.3,41.0,30.21,ESE,113,5.0,5.0,95,0.00,,,0.00,0,Wunderground v.1.15,2013-02-03 13:38:00,
2013-02-03 05:48:00,42.5,41.2,30.20,ESE,109,4.0,6.0,95,0.00,,,0.00,0,Wunderground v.1.15,2013-02-03 13:48:00,
2013-02-03 05:58:00,42.6,41.0,30.20,ESE,107,4.0,4.0,94,0.00,,,0.00,0,Wunderground v.1.15,2013-02-03 13:58:00,
2013-02-03 06:08:00,42.6,41.0,30.21,ESE,104,3.0,4.0,94,0.00,,,0.00,0,Wunderground v.1.15,2013-02-03 14:08:00,
2013-02-03 06:18:00,42.8,41.5,30.22,ESE,104,1.0,3.0,95,0.00,,,0.00,0,Wunderground v.1.15,2013-02-03 14:18:00,
2013-02-03 06:28:00,42.8,41.5,30.22,ESE,120,2.0,3.0,95,0.00,,,0.00,0,Wunderground v.1.15,2013-02-03 14:28:00,
2013-02-03 06:38:00,42.9,41.6,30.23,ESE,117,2.0,2.0,95,0.00,,,0.00,0,Wunderground v.1.15,2013-02-03 14:38:00,
2013-02-03 06:48:00,42.9,41.6,30.22,ESE,110,3.0,3.0,95,0.00,,,0.00,0,Wunderground v.1.15,2013-02-03 14:48:00,
2013-02-03 06:58:00,42.8,41.5,30.22,ESE,109,5.0,6.0,95,0.00,,,0.00,0,Wunderground v.1.15,2013-02-03 14:58:00,
2013-02-03 07:08:00,42.6,41.3,30.21,ESE,112,6.0,6.0,95,0.00,,,0.00,0,Wunderground v.1.15,2013-02-03 15:08:00,
2013-02-03 07:18:00,42.5,41.2,30.22,ESE,107,5.0,8.0,95,0.00,,,0.00,0,Wunderground v.1.15,2013-02-03 15:18:00,
2013-02-03 07:29:00,42.5,41.2,30.22,ESE,109,6.0,7.0,95,0.00,,,0.00,0,Wunderground v.1.15,2013-02-03 15:29:00,
2013-02-03 07:39:00,42.6,41.3,30.22,ESE,107,4.0,8.0,95,0.00,,,0.00,0,Wunderground v.1.15,2013-02-03 15:39:00,
2013-02-03 07:49:00,42.6,41.3,30.22,ESE,114,3.0,6.0,95,0.00,,,0.00,5,Wunderground v.1.15,2013-02-03 15:49:00,
2013-02-03 07:59:00,42.8,41.5,30.22,ESE,107,2.0,5.0,95,0.00,,,0.00,7,Wunderground v.1.15,2013-02-03 15:59:00,
2013-02-03 08:09:00,42.8,41.5,30.22,ESE,112,3.0,3.0,95,0.00,,,0.00,12,Wunderground v.1.15,2013-02-03 16:09:00,
2013-02-03 08:19:00,42.9,41.6,30.22,ESE,110,2.0,5.0,95,0.00,,,0.00,21,Wunderground v.1.15,2013-02-03 16:19:00,
2013-02-03 08:29:00,43.1,41.8,30.22,ESE,119,2.0,3.0,95,0.00,,,0.00,28,Wunderground v.1.15,2013-02-03 16:29:00,
2013-02-03 08:38:00,43.2,41.6,30.23,ESE,119,2.0,2.0,94,0.00,,,0.00,39,Wunderground v.1.15,2013-02-03 16:38:00,
2013-02-03 08:48:00,43.3,41.7,30.23,ESE,117,1.0,2.0,94,0.00,,,0.00,53,Wunderground v.1.15,2013-02-03 16:48:00,
2013-02-03 08:58:00,43.5,41.6,30.23,SSE,165,2.0,2.0,93,0.00,,,0.00,56,Wunderground v.1.15,2013-02-03 16:58:00,
2013-02-03 09:08:00,43.3,41.1,30.24,SE,140,3.0,3.0,92,0.00,,,0.00,79,Wunderground v.1.15,2013-02-03 17:08:00,
2013-02-03 09:18:00,43.5,41.3,30.24,SSE,165,2.0,3.0,92,0.00,,,0.00,79,Wunderground v.1.15,2013-02-03 17:18:00,
2013-02-03 09:28:00,43.5,41.3,30.24,South,191,1.0,3.0,92,0.00,,,0.00,104,Wunderground v.1.15,2013-02-03 17:28:00,
2013-02-03 09:38:00,43.6,41.4,30.24,South,179,1.0,1.0,92,0.00,,,0.00,130,Wunderground v.1.15,2013-02-03 17:38:00,
2013-02-03 09:53:00,44.2,41.7,30.23,SE,134,1.0,1.0,91,0.00,,,0.00,123,Wunderground v.1.15,2013-02-03 17:53:00,
2013-02-03 09:58:00,44.2,41.5,30.23,SE,131,1.0,1.0,90,0.00,,,0.00,146,Wunderground v.1.15,2013-02-03 17:58:00,
2013-02-03 10:08:00,44.6,41.8,30.23,SSE,157,2.0,2.0,90,0.00,,,0.00,181,Wunderground v.1.15,2013-02-03 18:08:00,
2013-02-03 10:18:00,45.1,41.8,30.22,SSW,195,2.0,2.0,88,0.00,,,0.00,167,Wunderground v.1.15,2013-02-03 18:18:00,
2013-02-03 10:28:00,45.2,41.9,30.22,SSE,161,2.0,2.0,88,0.00,,,0.00,194,Wunderground v.1.15,2013-02-03 18:28:00,
2013-02-03 10:39:00,45.4,42.1,30.23,South,191,2.0,2.0,88,0.00,,,0.00,123,Wunderground v.1.15,2013-02-03 18:39:00,
2013-02-03 10:49:00,45.7,42.1,30.23,South,191,1.0,1.0,87,0.00,,,0.00,63,Wunderground v.1.15,2013-02-03 18:49:00,
2013-02-03 11:03:00,45.5,41.6,30.24,South,188,1.0,1.0,86,0.00,,,0.00,51,Wunderground v.1.15,2013-02-03 19:03:00,
2013-02-03 11:09:00,45.5,41.6,30.24,South,188,1.0,1.0,86,0.00,,,0.00,58,Wunderground v.1.15,2013-02-03 19:09:00,
2013-02-03 11:24:00,45.5,41.6,30.24,SE,144,1.0,1.0,86,0.00,,,0.00,165,Wunderground v.1.15,2013-02-03 19:24:00,
2013-02-03 11:29:00,45.8,41.5,30.24,South,189,1.0,1.0,85,0.00,,,0.00,141,Wunderground v.1.15,2013-02-03 19:29:00,
2013-02-03 11:42:00,46.1,40.9,30.24,SSW,198,3.0,3.0,82,0.00,,,0.00,218,Wunderground v.1.15,2013-02-03 19:42:00,
2013-02-03 11:48:00,46.4,40.9,30.23,South,171,3.0,3.0,81,0.00,,,0.00,222,Wunderground v.1.15,2013-02-03 19:48:00,
2013-02-03 12:08:00,46.4,40.9,30.22,SSE,158,3.0,3.0,81,0.00,,,0.00,215,Wunderground v.1.15,2013-02-03 20:08:00,
2013-02-03 12:18:00,46.8,41.3,30.22,SSE,157,2.0,3.0,81,0.00,,,0.00,262,Wunderground v.1.15,2013-02-03 20:18:00,
2013-02-03 12:28:00,47.1,41.6,30.22,ESE,104,3.0,3.0,81,0.00,,,0.00,181,Wunderground v.1.15,2013-02-03 20:28:00,
2013-02-03 12:38:00,47.1,41.2,30.22,South,186,2.0,2.0,80,0.00,,,0.00,114,Wunderground v.1.15,2013-02-03 20:38:00,
2013-02-03 12:53:00,46.7,41.2,30.22,South,171,3.0,3.0,81,0.00,,,0.00,106,Wunderground v.1.15,2013-02-03 20:53:00,
2013-02-03 12:58:00,46.7,41.2,30.22,SSW,200,2.0,3.0,81,0.00,,,0.00,134,Wunderground v.1.15,2013-02-03 20:58:00,
2013-02-03 13:08:00,46.8,41.6,30.22,SSW,193,1.0,2.0,82,0.00,,,0.00,111,Wunderground v.1.15,2013-02-03 21:08:00,
2013-02-03 13:19:00,46.8,41.3,30.21,South,174,2.0,2.0,81,0.00,,,0.00,99,Wunderground v.1.15,2013-02-03 21:19:00,
2013-02-03 13:29:00,47.0,41.5,30.21,East,89,1.0,5.0,81,0.00,,,0.00,141,Wunderground v.1.15,2013-02-03 21:29:00,
2013-02-03 13:39:00,47.1,41.6,30.20,South,172,1.0,2.0,81,0.00,,,0.00,134,Wunderground v.1.15,2013-02-03 21:39:00,
2013-02-03 13:49:00,47.3,41.8,30.19,SE,144,2.0,2.0,81,0.00,,,0.00,201,Wunderground v.1.15,2013-02-03 21:49:00,
2013-02-03 13:59:00,47.4,41.2,30.19,ESE,106,4.0,6.0,79,0.00,,,0.00,187,Wunderground v.1.15,2013-02-03 21:59:00,
2013-02-03 14:09:00,47.4,41.5,30.18,South,171,4.0,6.0,80,0.00,,,0.00,99,Wunderground v.1.15,2013-02-03 22:09:00,
2013-02-03 14:19:00,47.6,41.7,30.19,South,171,2.0,2.0,80,0.00,,,0.00,99,Wunderground v.1.15,2013-02-03 22:19:00,
2013-02-03 14:29:00,47.6,41.4,30.19,ESE,109,2.0,3.0,79,0.00,,,0.00,97,Wunderground v.1.15,2013-02-03 22:29:00,
2013-02-03 14:39:00,47.4,41.5,30.19,ESE,113,3.0,3.0,80,0.00,,,0.00,77,Wunderground v.1.15,2013-02-03 22:39:00,
2013-02-03 14:48:00,47.4,41.5,30.18,ESE,104,3.0,3.0,80,0.00,,,0.00,76,Wunderground v.1.15,2013-02-03 22:48:00,
2013-02-03 14:58:00,47.6,41.7,30.18,ESE,113,3.0,3.0,80,0.00,,,0.00,90,Wunderground v.1.15,2013-02-03 22:58:00,
2013-02-03 15:08:00,47.6,41.7,30.18,ESE,121,3.0,3.0,80,0.00,,,0.00,63,Wunderground v.1.15,2013-02-03 23:08:00,
2013-02-03 15:18:00,47.4,41.5,30.19,ESE,109,3.0,8.0,80,0.00,,,0.00,49,Wunderground v.1.15,2013-02-03 23:18:00,
2013-02-03 15:28:00,47.4,41.5,30.19,SSE,155,3.0,3.0,80,0.00,,,0.00,28,Wunderground v.1.15,2013-02-03 23:28:00,
2013-02-03 15:38:00,47.3,41.4,30.19,SSE,157,2.0,3.0,80,0.00,,,0.00,26,Wunderground v.1.15,2013-02-03 23:38:00,
2013-02-03 15:48:00,47.3,41.4,30.18,SE,124,2.0,2.0,80,0.00,,,0.00,35,Wunderground v.1.15,2013-02-03 23:48:00,
2013-02-03 16:03:00,47.3,41.4,30.18,ESE,114,3.0,3.0,80,0.00,,,0.00,23,Wunderground v.1.15,2013-02-04 00:03:00,
2013-02-03 16:08:00,47.3,41.4,30.18,South,191,3.0,3.0,80,0.00,,,0.00,21,Wunderground v.1.15,2013-02-04 00:08:00,
2013-02-03 16:18:00,47.3,41.4,30.18,SSE,168,2.0,2.0,80,0.00,,,0.00,19,Wunderground v.1.15,2013-02-04 00:18:00,
2013-02-03 16:29:00,47.3,41.4,30.18,South,174,3.0,6.0,80,0.00,,,0.00,19,Wunderground v.1.15,2013-02-04 00:29:00,
2013-02-03 16:39:00,47.3,41.8,30.18,SSE,157,2.0,3.0,81,0.00,,,0.00,12,Wunderground v.1.15,2013-02-04 00:39:00,
2013-02-03 16:49:00,47.1,41.6,30.18,SE,141,3.0,5.0,81,0.00,,,0.00,7,Wunderground v.1.15,2013-02-04 00:49:00,
2013-02-03 16:59:00,47.1,41.6,30.18,SE,140,3.0,4.0,81,0.00,,,0.00,5,Wunderground v.1.15,2013-02-04 00:59:00,
2013-02-03 17:09:00,47.0,41.5,30.18,ESE,113,3.0,6.0,81,0.00,,,0.00,0,Wunderground v.1.15,2013-02-04 01:09:00,
2013-02-03 17:19:00,47.0,41.8,30.18,SE,133,2.0,3.0,82,0.00,,,0.00,0,Wunderground v.1.15,2013-02-04 01:19:00,
2013-02-03 17:29:00,46.8,41.9,30.18,SSE,158,2.0,3.0,83,0.00,,,0.00,0,Wunderground v.1.15,2013-02-04 01:29:00,
2013-02-03 17:39:00,46.8,41.9,30.18,ESE,113,3.0,5.0,83,0.00,,,0.00,0,Wunderground v.1.15,2013-02-04 01:39:00,
2013-02-03 17:48:00,46.7,42.4,30.17,ESE,107,3.0,3.0,85,0.00,,,0.01,0,Wunderground v.1.15,2013-02-04 01:48:00,
2013-02-03 17:58:00,46.4,42.7,30.17,SE,136,1.0,2.0,87,0.00,,,0.01,0,Wunderground v.1.15,2013-02-04 01:58:00,
2013-02-03 18:08:00,46.1,42.7,30.17,South,172,1.0,3.0,88,0.00,,,0.02,0,Wunderground v.1.15,2013-02-04 02:08:00,
2013-02-03 18:18:00,45.8,43.0,30.17,SSW,196,2.0,2.0,90,0.00,,,0.02,0,Wunderground v.1.15,2013-02-04 02:18:00,
2013-02-03 18:28:00,45.7,43.2,30.17,ESE,121,2.0,2.0,91,0.00,,,0.02,0,Wunderground v.1.15,2013-02-04 02:28:00,
2013-02-03 18:38:00,45.5,43.3,30.17,ESE,106,2.0,2.0,92,0.00,,,0.03,0,Wunderground v.1.15,2013-02-04 02:38:00,
2013-02-03 18:48:00,45.4,43.2,30.17,ESE,110,3.0,6.0,92,0.05,,,0.04,0,Wunderground v.1.15,2013-02-04 02:48:00,
2013-02-03 18:58:00,45.2,43.3,30.17,ESE,117,2.0,4.0,93,0.05,,,0.04,0,Wunderground v.1.15,2013-02-04 02:58:00,
2013-02-03 19:08:00,45.2,43.6,30.17,South,172,2.0,2.0,94,0.00,,,0.05,0,Wunderground v.1.15,2013-02-04 03:08:00,
2013-02-03 19:23:00,45.1,43.8,30.17,South,169,1.0,1.0,95,0.00,,,0.05,0,Wunderground v.1.15,2013-02-04 03:23:00,
2013-02-03 19:33:00,45.1,43.8,30.16,SSE,164,1.0,1.0,95,0.00,,,0.06,0,Wunderground v.1.15,2013-02-04 03:33:00,
2013-02-03 19:38:00,45.1,43.8,30.16,South,185,1.0,6.0,95,0.00,,,0.06,0,Wunderground v.1.15,2013-02-04 03:38:00,
2013-02-03 19:48:00,44.9,43.6,30.16,SE,126,2.0,5.0,95,0.00,,,0.06,0,Wunderground v.1.15,2013-02-04 03:48:00,
2013-02-03 19:59:00,44.9,43.6,30.16,SSE,152,2.0,2.0,95,0.00,,,0.06,0,Wunderground v.1.15,2013-02-04 03:59:00,
2013-02-03 20:08:00,44.9,43.8,30.16,SSE,161,2.0,2.0,96,0.00,,,0.07,0,Wunderground v.1.15,2013-02-04 04:08:00,
2013-02-03 20:19:00,44.8,43.7,30.16,South,179,2.0,2.0,96,0.00,,,0.07,0,Wunderground v.1.15,2013-02-04 04:19:00,
2013-02-03 20:29:00,44.8,43.7,30.16,SE,126,1.0,2.0,96,0.00,,,0.07,0,Wunderground v.1.15,2013-02-04 04:29:00,
2013-02-03 20:39:00,44.8,43.5,30.15,SSW,192,2.0,2.0,95,0.00,,,0.07,0,Wunderground v.1.15,2013-02-04 04:39:00,
2013-02-03 20:48:00,44.8,43.5,30.15,South,189,1.0,2.0,95,0.00,,,0.07,0,Wunderground v.1.15,2013-02-04 04:48:00,
2013-02-03 20:58:00,44.8,43.5,30.15,South,182,2.0,2.0,95,0.00,,,0.07,0,Wunderground v.1.15,2013-02-04 04:58:00,
2013-02-03 21:02:00,44.8,43.5,30.16,South,176,1.0,1.0,95,0.00,,,0.07,0,Wunderground v.1.15,2013-02-04 05:02:00,
2013-02-03 21:08:00,44.8,43.5,30.16,South,175,1.0,1.0,95,0.00,,,0.07,0,Wunderground v.1.15,2013-02-04 05:08:00,
2013-02-03 21:18:00,44.8,43.5,30.16,SSW,202,2.0,2.0,95,0.00,,,0.07,0,Wunderground v.1.15,2013-02-04 05:18:00,
2013-02-03 21:22:00,44.8,43.5,30.16,SSW,198,1.0,1.0,95,0.00,,,0.07,0,Wunderground v.1.15,2013-02-04 05:22:00,
2013-02-03 21:28:00,44.8,43.5,30.16,SSW,199,2.0,2.0,95,0.00,,,0.07,0,Wunderground v.1.15,2013-02-04 05:28:00,
2013-02-03 21:38:00,44.8,43.2,30.16,South,185,2.0,2.0,94,0.00,,,0.07,0,Wunderground v.1.15,2013-02-04 05:38:00,
2013-02-03 21:48:00,44.8,43.2,30.16,South,178,2.0,2.0,94,0.00,,,0.07,0,Wunderground v.1.15,2013-02-04 05:48:00,
2013-02-03 21:58:00,44.8,43.2,30.16,SSW,202,1.0,6.0,94,0.00,,,0.07,0,Wunderground v.1.15,2013-02-04 05:58:00,
2013-02-03 22:08:00,44.6,43.0,30.16,SSW,198,2.0,3.0,94,0.00,,,0.07,0,Wunderground v.1.15,2013-02-04 06:08:00,
2013-02-03 22:18:00,44.6,42.7,30.16,SSW,195,2.0,3.0,93,0.00,,,0.07,0,Wunderground v.1.15,2013-02-04 06:18:00,
2013-02-03 22:28:00,44.6,42.7,30.16,South,178,2.0,2.0,93,0.00,,,0.07,0,Wunderground v.1.15,2013-02-04 06:28:00,
2013-02-03 22:38:00,44.5,42.6,30.15,South,169,1.0,1.0,93,0.00,,,0.07,0,Wunderground v.1.15,2013-02-04 06:38:00,
2013-02-03 22:49:00,44.5,42.6,30.16,SSW,210,2.0,2.0,93,0.00,,,0.07,0,Wunderground v.1.15,2013-02-04 06:49:00,
2013-02-03 22:58:00,44.6,42.4,30.16,SSW,205,1.0,2.0,92,0.00,,,0.07,0,Wunderground v.1.15,2013-02-04 06:58:00,
2013-02-03 23:08:00,44.6,42.4,30.16,SSW,192,1.0,1.0,92,0.00,,,0.07,0,Wunderground v.1.15,2013-02-04 07:08:00,
2013-02-03 23:23:00,44.6,42.1,30.16,South,172,3.0,3.0,91,0.00,,,0.07,0,Wunderground v.1.15,2013-02-04 07:23:00,
2013-02-03 23:28:00,44.6,42.1,30.16,South,191,2.0,3.0,91,0.00,,,0.07,0,Wunderground v.1.15,2013-02-04 07:28:00,
2013-02-03 23:39:00,44.6,42.1,30.15,SSW,192,0.0,2.0,91,0.00,,,0.07,0,Wunderground v.1.15,2013-02-04 07:39:00,
2013-02-03 23:48:00,44.5,42.0,30.15,SSW,193,1.0,2.0,91,0.00,,,0.07,0,Wunderground v.1.15,2013-02-04 07:48:00,
2013-02-03 23:58:00,44.5,42.0,30.15,SSW,192,1.0,1.0,91,0.00,,,0.07,0,Wunderground v.1.15,2013-02-04 07:58:00,